Location: *
(51.2167°N, 10.0667°E)
Time: 19:30:21
(UTC+00:00)

YAOGAN 1 - Pass Details

Date: 12 December 2019
Orbit: 619 x 621 km, 98.0° (Epoch: 24 January)

Event Time Altitude Azimuth Distance (km) Brightness Sun altitude
Rises 18:08:29 0° 181° (S) 2,887 6.1 -26.3°
Reaches altitude 10° 18:10:44 10° 187° (S) 1,986 5.3 -26.6°
Maximum altitude 18:14:53 46° 261° (W) 844 3.6 -27.3°
Drops below altitude 10° 18:19:05 10° 335° (NNW) 2,002 5.4 -27.9°
Sets 18:21:22 0° 342° (NNW) 2,913 6.2 -28.3°
